Location: Brachstadt
(48.6975°N, 10.6755°E)
Time: 09:43:44
(UTC+00:00)

N. Korean satellite - Visible Passes

Search period start: 08 December 2022 00:00
Search period end: 18 December 2022 00:00
Orbit: 421 x 452 km, 97.3° (Epoch: 07 December)

Date Brightness Start Highest point End Pass type
(mag) Time Alt. Az. Time Alt. Az. Time Alt. Az.
08 Dec 8.9 03:58:40 10° NE 04:01:25 22° E 04:04:06 10° SSE visible
08 Dec 7.4 05:31:01 10° N 05:33:53 26° WNW 05:36:43 10° SW visible
08 Dec 7.8 16:03:19 10° S 16:06:35 44° W 16:09:53 10° NNW visible
09 Dec 6.2 04:51:33 10° N 04:54:58 78° WNW 04:58:18 10° SSW visible
09 Dec 10.0 16:59:17 10° WSW 17:00:19 11° W 17:01:21 10° WNW visible
10 Dec 8.2 04:12:40 10° NNE 04:15:45 32° E 04:18:48 10° SSE visible
10 Dec 7.8 05:45:38 10° NNW 05:48:03 18° WNW 05:50:26 10° WSW visible
10 Dec 8.6 16:17:49 10° SSW 16:20:51 30° W 16:23:56 10° NNW visible
11 Dec 9.8 03:35:01 10° ENE 03:36:17 12° E 03:37:33 10° ESE visible
11 Dec 6.5 05:05:47 10° N 05:09:05 50° WNW 05:12:19 10° SSW visible
12 Dec 7.3 04:26:33 10° NNE 04:29:51 48° E 04:33:04 10° S visible
12 Dec 8.2 06:00:15 10° NNW 06:01:57 13° WNW 06:03:38 10° W visible
12 Dec 9.3 16:32:16 10° SW 16:34:56 21° W 16:37:36 10° NW visible
13 Dec 9.3 03:48:06 10° NE 03:50:20 17° E 03:52:33 10° SE visible
13 Dec 7.0 05:19:52 10° N 05:22:57 34° WNW 05:25:59 10° SW visible
13 Dec 7.0 15:52:05 10° S 15:55:27 63° WSW 15:58:51 10° NNW visible
14 Dec 7.0 04:40:19 10° NNE 04:44:32 46° S 04:46:59 10° S visible
14 Dec 9.7 16:46:46 10° SW 16:48:48 15° W 16:50:50 10° NW visible
15 Dec 9.0 04:05:27 18° SE 04:05:27 18° SE 04:06:51 10° SSE visible
15 Dec 8.5 05:33:48 10° NNW 05:38:51 13° WSW 05:39:17 10° WSW visible
15 Dec 7.9 16:05:53 10° S 16:09:07 42° W 16:12:24 10° NNW visible
16 Dec 8.3 04:53:55 10° N 04:59:31 19° SSW 05:00:33 10° SSW visible
16 Dec 10.1 17:01:46 10° W 17:02:28 10° W 17:03:10 10° WNW visible
17 Dec 9.0 04:20:03 14° SSE 04:20:03 14° SSE 04:20:42 10° SSE visible
17 Dec9.005:53:24WSW05:53:24WSW05:47:04NNWvisible
17 Dec 8.7 16:19:36 10° SSW 16:22:37 29° W 16:25:38 10° NW visible
